Weather History for St. Joseph, MO

Change the Weather History Date:

Friday, December 7, 2012

  Actual Average Record
Temperature  
Mean Temperature 41 °F 32 °F  
Max Temperature 47 °F 42 °F 64 °F (1991)
Min Temperature 34 °F 22 °F -3 °F (1917)
Degree Days  
Heating Degree Days 24 33  
Month to date heating degree days 125 223  
Since 1 July heating degree days 1237 1334  
Cooling Degree Days 0 0  
Month to date cooling degree days 0 0  
Year to date cooling degree days 1565 1221  
Moisture  
Dew Point 37 °F    
Average Humidity 85    
Maximum Humidity 100    
Minimum Humidity 70    
Precipitation  
Precipitation 0.01 in 0.05 in 2.16 in (1980)
Month to date precipitation 0.01 0.32  
Year to date precipitation 22.32 34.40  
Sea Level Pressure  
Sea Level Pressure 29.93 in    
Wind  
Wind Speed 5 mph (NNE)    
Max Wind Speed 13 mph    
Max Gust Speed 15 mph    
Visibility 6 miles    
Events Fog , Rain    
T = Trace of Precipitation, MM = Missing Value Source: NWS Daily Summary

Daily Weather History Graph

Daily Weather History Graph

Search for Another Location

Airport:

Trip Planner

Search our weather history database for the weather conditions in past years. The results will help you decide how hot, cold, wet, or windy it might be!

Date:

Astronomy

Dec. 07, 2012 Rise Set
Actual Time 7:27 AM CST 4:54 PM CST
Civil Twilight 6:57 AM CST 5:25 PM CST
Nautical Twilight 6:23 AM CST 5:58 PM CST
Astronomical Twilight 5:51 AM CST 6:31 PM CST
Moon 12:48 AM CST (12/7) 12:51 PM CST (12/7)
Length of Visible Light 10h 27m
Length of Day
9h 27m
Last Quarter, 38% of the Moon is Illuminated
Dec 7
Last Quarter
Dec 13
New
Dec 19
First Quarter
Dec 28
Full
Jan 4
Last Quarter

Hourly Weather History & Observations

Time (CST) Temp. Windchill Dew Point Humidity Pressure Visibility Wind Dir Wind Speed Gust Speed Precip Events Conditions
12:53 AM 44.1 °F 38.6 °F 39.0 °F 82% 29.95 in 10.0 mi NNE 10.4 mph - N/A   Overcast
1:53 AM 44.1 °F 39.0 °F 39.0 °F 82% 29.94 in 10.0 mi NNE 9.2 mph - N/A   Overcast
2:53 AM 44.1 °F 40.1 °F 39.0 °F 82% 29.95 in 10.0 mi NE 6.9 mph - N/A   Overcast
3:53 AM 44.1 °F 40.8 °F 37.9 °F 79% 29.94 in 10.0 mi NE 5.8 mph - N/A   Overcast
4:53 AM 43.0 °F 38.8 °F 37.9 °F 82% 29.94 in 10.0 mi NNE 6.9 mph - N/A   Overcast
6:53 AM 43.0 °F 40.3 °F 37.0 °F 80% 29.93 in 10.0 mi ENE 4.6 mph - N/A   Overcast
7:53 AM 42.1 °F 38.4 °F 36.0 °F 79% 29.94 in 10.0 mi NE 5.8 mph - N/A   Overcast
8:53 AM 43.0 °F 39.5 °F 37.0 °F 80% 29.94 in 10.0 mi NNE 5.8 mph - N/A   Overcast
9:53 AM 44.1 °F 40.8 °F 36.0 °F 73% 29.95 in 10.0 mi NE 5.8 mph - N/A   Overcast
10:53 AM 44.1 °F 40.8 °F 36.0 °F 73% 29.94 in 10.0 mi ENE 5.8 mph - N/A   Overcast
11:53 AM 46.0 °F 43.9 °F 37.0 °F 71% 29.91 in 10.0 mi ESE 4.6 mph - N/A   Overcast
12:53 PM 46.0 °F - 37.0 °F 71% 29.88 in 10.0 mi Calm Calm - N/A   Overcast
1:53 PM 46.9 °F - 37.0 °F 68% 29.88 in 10.0 mi Calm Calm - N/A   Overcast
2:53 PM 46.9 °F - 37.0 °F 68% 29.89 in 10.0 mi North 5.8 mph - N/A   Overcast
3:53 PM 45.0 °F 41.8 °F 37.9 °F 76% 29.90 in 8.0 mi North 5.8 mph - N/A   Overcast
4:53 PM 45.0 °F 41.8 °F 39.0 °F 80% 29.90 in 9.0 mi NE 5.8 mph - N/A   Overcast
5:27 PM 44.6 °F 43.1 °F 39.2 °F 81% 29.90 in 9.0 mi NE 3.5 mph - N/A   Overcast
5:53 PM 44.1 °F 41.5 °F 39.0 °F 82% 29.91 in 9.0 mi NE 4.6 mph - N/A   Overcast
7:53 PM 43.0 °F 40.3 °F 39.9 °F 89% 29.91 in 6.0 mi South 4.6 mph - 0.01 in Rain Light Rain
8:53 PM 43.0 °F - 39.0 °F 86% 29.93 in 7.0 mi Calm Calm - 0.00 in   Mostly Cloudy
9:53 PM 39.9 °F 37.8 °F 37.9 °F 93% 29.95 in 4.0 mi NNW 3.5 mph - N/A   Clear
10:00 PM 37.4 °F - 37.4 °F 100% 29.94 in 1.5 mi Calm Calm - N/A   Clear
10:03 PM 37.4 °F - 35.6 °F 93% 29.93 in 0.8 mi Calm Calm - N/A   Mist
10:11 PM 37.4 °F - 35.6 °F 93% 29.94 in 0.5 mi Calm Calm - N/A Fog Fog
10:30 PM 37.4 °F 33.8 °F 35.6 °F 93% 29.95 in 0.8 mi NNW 4.6 mph - N/A   Scattered Clouds
10:37 PM 35.6 °F 31.7 °F 35.6 °F 100% 29.95 in 1.0 mi NNW 4.6 mph - N/A   Mist
10:40 PM 35.6 °F 32.8 °F 35.6 °F 100% 29.95 in 0.8 mi NNW 3.5 mph - N/A   Scattered Clouds
10:46 PM 35.6 °F 32.8 °F 33.8 °F 93% 29.95 in 0.2 mi NNW 3.5 mph - N/A Fog Fog
10:53 PM 34.0 °F 31.0 °F 34.0 °F 100% 29.98 in 0.2 mi NNW 3.5 mph - N/A Fog Fog
11:01 PM 33.8 °F - 33.8 °F 100% 29.96 in 0.5 mi Calm Calm - N/A Fog Fog
11:06 PM 35.6 °F - 33.8 °F 93% 29.96 in 1.0 mi Calm Calm - N/A   Overcast
11:21 PM 35.6 °F 32.8 °F 35.6 °F 100% 29.97 in 3.0 mi NNW 3.5 mph - N/A   Overcast
11:53 PM 37.9 °F 33.5 °F 37.0 °F 97% 29.98 in 3.0 mi NNE 5.8 mph - N/A   Overcast